"2010-06-07 00:00:00",179020,9.12,40.38,1.183,0.185,22.85,110.118,25.2,26.12,40.26,0,111,13.2,26.04,2.4
"2010-06-07 00:00:30",179021,8.96,40.49,0.773,0.164,22.98,110.1017,25.16,26.09,40.28,0,111,13.2,26.00,2.5
"2010-06-07 00:01:00",179022,8.75,41.12,0.957,0.263,23.07,110.0852,25.11,26.06,40.22,0,111,13.2,25.95,3.1
"2010-06-07 00:01:30",179023,9.03,41.07,0.655,0.175,23.08,110.0846,25.11,26.05,40.24,0,111,13.2,25.95,3.1
"2010-06-07 00:02:00",179024,9.09,41.76,0.753,0.191,23.12,110.0849,25.11,26.05,40.13,0,111,13.2,25.95,3.8
"2010-06-07 00:02:30",179025,9.37,41.72,0.666,0.182,23.05,110.0865,25.12,26.04,40.76,0,111,13.21,25.96,3.7
"2010-06-07 00:03:00",179026,9.28,42.05,0.582,0.345,23.09,110.0784,25.1,26.01,40.48,0,111,13.21,25.94,4.0
"2010-06-07 00:03:30",179027,9.72,42.96,0.358,0.072,23.08,110.0655,25.06,26.02,41.24,0,111,13.21,25.90,5.0
"2010-06-07 00:04:00",179028,9.72,43.04,0.383,0.142,23.02,110.0651,25.06,26.01,41.3,0,111,13.21,25.90,5.0
"2010-06-07 00:04:30",179029,9.59,41.87,0.534,0.097,22.89,110.0673,25.07,26,41.62,0,111,13.21,25.91,3.9
"2010-06-07 00:05:00",179030,9.65,43.5,0.342,0.079,22.91,110.0723,25.08,25.99,41.49,0,111,13.21,25.92,5.5
"2010-06-07 00:05:30",179031,9.52,44.69,0.351,0.049,22.89,110.0695,25.07,25.97,41.31,0,111,13.21,25.91,6.7
"2010-06-07 00:06:00",179032,9.59,44.59,0.444,0.062,22.86,110.0645,25.06,25.95,41.23,0,111,13.22,25.90,6.6
"2010-06-07 00:06:30",179033,9.36,43.79,0.355,0.077,22.9,110.071,25.08,25.97,41.18,0,111,13.21,25.92,5.8
"2010-06-07 00:07:00",179034,9.41,43.8,0.295,0.036,22.97,110.0746,25.09,25.96,41.16,0,111,13.22,25.93,5.8
"2010-06-07 00:07:30",179035,9.6,44.16,0.502,0.104,23.03,110.076,25.09,25.96,40.81,0,111,13.22,25.93,6.2
"2010-06-07 00:08:00",179036,9.9,44.81,0.337,0.135,23.01,110.0769,25.09,25.96,40.52,0,111,13.22,25.93,6.8
"2010-06-07 00:08:30",179037,10.12,43.09,1.002,0.126,22.8,110.0725,25.08,25.95,40.53,0,111,13.22,25.92,5.1
"2010-06-07 00:09:00",179038,10.46,41.04,0.714,0.108,22.69,110.0481,25.02,25.94,40.8,0,111,13.22,25.86,3.0
"2010-06-07 00:09:30",179039,10.45,41.01,0.694,0.073,22.69,110.049,25.02,25.92,40.6,0,111,13.22,25.86,3.0
"2010-06-07 00:10:00",179040,10.58,40.08,0.448,0.07,22.69,110.0339,24.98,25.91,40.52,0,111,13.22,25.82,2.1
"2010-06-07 00:10:30",179041,10.52,39.94,0.573,0.087,22.74,110.0205,24.95,25.87,40.44,0,111,13.22,25.79,1.9
"2010-06-07 00:11:00",179042,10.63,40.37,0.532,0.074,22.75,110.0183,24.94,25.85,40.32,0,111,13.22,25.78,2.4
"2010-06-07 00:11:30",179043,10.62,40.65,0.657,0.052,22.82,109.9938,24.88,25.84,40.25,0,111,13.22,25.72,2.7
"2010-06-07 00:12:00",179044,10.42,42.37,0.805,0.092,22.95,109.9865,24.86,25.81,39.88,0,111,13.22,25.70,4.4
"2010-06-07 00:12:30",179045,10.29,43.64,0.482,0.06,23.04,109.9865,24.86,25.8,39.46,0,111,13.22,25.70,5.6
"2010-06-07 00:13:00",179046,10.32,45.03,0.659,0.064,23.06,109.9865,24.86,25.79,39.55,0,111,13.22,25.70,7.0
"2010-06-07 00:13:30",179047,10.37,45.87,0.386,0.095,23.1,109.9865,24.86,25.78,39.39,0,111,13.22,25.70,7.9
"2010-06-07 00:14:00",179048,10.38,44.62,0.792,0.084,23.01,109.9865,24.86,25.78,39.28,0,111,13.22,25.70,6.6
"2010-06-07 00:14:30",179049,10.25,46.05,1.423,0.121,23.09,109.9865,24.86,25.78,39.1,0,111,13.21,25.70,8.0
"2010-06-07 00:15:00",179050,10.24,48.13,0.477,0.09,23.2,109.9879,24.86,25.78,39.16,0,111,13.22,25.70,10.1
"2010-06-07 00:15:30",179051,10.03,48.72,0.515,0.073,23.18,109.9963,24.89,25.8,39.33,0,111,13.21,25.72,10.7
"2010-06-07 00:16:00",179052,9.97,49.33,0.484,0.073,23.24,110.0171,24.94,25.8,39.45,0,111,13.21,25.78,11.3
"2010-06-07 00:16:30",179053,9.93,49.39,0.491,0.088,23.27,110.0202,24.95,25.84,39.27,0,111,13.21,25.79,11.4
"2010-06-07 00:17:00",179054,9.92,49.43,0.42,0.1,23.27,110.0233,24.95,25.85,39.1,0,111,13.21,25.79,11.4
"2010-06-07 00:17:30",179055,9.54,48.97,0.86,0.241,23.33,110.0421,25,25.87,39.27,0,111,13.21,25.84,11.0
"2010-06-07 00:18:00",179056,9.65,49.61,0.63,0.126,23.28,110.0537,25.03,25.88,38.6,0,111,13.21,25.87,11.6
"2010-06-07 00:18:30",179057,9.56,50.41,0.544,0.1,23.32,110.0571,25.04,25.92,38.92,0,111,13.22,25.88,12.4
"2010-06-07 00:19:00",179058,9.64,50.18,0.787,0.203,23.25,110.0829,25.11,25.94,38.52,0,111,13.22,25.95,12.2
"2010-06-07 00:19:30",179059,9.37,51.4,0.661,0.175,23.31,110.0868,25.12,25.95,38.56,0,111,13.22,25.96,13.4
"2010-06-07 00:20:00",179060,9.42,51.77,0.599,0.094,23.34,110.091,25.13,25.99,38.43,0,111,13.22,25.97,13.8
"2010-06-07 00:20:30",179061,9.45,51.29,0.518,0.091,23.33,110.115,25.19,26,38.39,0,111,13.22,26.03,13.3
"2010-06-07 00:21:00",179062,9.57,51.75,0.55,0.092,23.2,110.1196,25.2,26.03,38.33,0,111,13.22,26.04,13.8
"2010-06-07 00:21:30",179063,9.4,52.52,0.529,0.123,23.22,110.1248,25.22,26.05,38.32,0,111,13.22,26.06,14.5
"2010-06-07 00:22:00",179064,9.28,52.61,0.508,0.085,23.29,110.1498,25.28,26.09,38.28,0,111,13.22,26.12,14.6
"2010-06-07 00:22:30",179065,9.13,52.37,0.525,0.065,23.27,110.1514,25.28,26.12,38.24,0,111,13.22,26.12,14.4
"2010-06-07 00:23:00",179066,9.07,52.25,0.486,0.073,23.28,110.1751,25.34,26.16,38.17,0,111,13.22,26.18,14.2
"2010-06-07 00:23:30",179067,9.24,51.85,0.381,0.059,23.28,110.1831,25.36,26.17,38.18,0,111,13.22,26.21,13.8
"2010-06-07 00:24:00",179068,9.43,51.87,0.433,0.103,23.21,110.184,25.37,26.21,38.08,0,111,13.22,26.21,13.9
"2010-06-07 00:24:30",179069,9.59,51.72,0.357,0.03,23.17,110.189,25.38,26.23,38.03,0,111,13.22,26.22,13.7
"2010-06-07 00:25:00",179070,9.48,51.75,0.422,0.066,23.25,110.2038,25.42,26.25,37.93,0,111,13.22,26.26,13.8
"2010-06-07 00:25:30",179071,9.42,51.5,0.502,0.065,23.33,110.2142,25.44,26.26,37.82,0,111,13.22,26.29,13.5
"2010-06-07 00:26:00",179072,9.29,50.65,0.6,0.051,23.3,110.2165,25.45,26.27,37.74,0,111,13.22,26.29,12.7
"2010-06-07 00:26:30",179073,9.07,50.12,0.514,0.111,23.27,110.2149,25.45,26.3,37.66,0,111,13.22,26.29,12.1
"2010-06-07 00:27:00",179074,8.92,50.13,0.555,0.079,23.29,110.2188,25.46,26.31,37.49,0,111,13.22,26.30,12.1
"2010-06-07 00:27:30",179075,8.88,50.59,0.663,0.098,23.31,110.2373,25.5,26.34,37.4,0,111,13.22,26.35,12.6
"2010-06-07 00:28:00",179076,8.69,50.26,0.532,0.099,23.32,110.2456,25.53,26.35,37.38,0,111,13.22,26.37,12.3
"2010-06-07 00:28:30",179077,8.39,49.27,0.474,0.126,23.36,110.2459,25.53,26.35,37.28,0,111,13.21,26.37,11.3
"2010-06-07 00:29:00",179078,8.17,48.66,0.514,0.044,23.42,110.2443,25.52,26.39,37.12,0,111,13.21,26.36,10.7
"2010-06-07 00:29:30",179079,7.972,48.27,0.546,0.111,23.4,110.2528,25.54,26.41,37.13,0,111,13.21,26.39,10.3
"2010-06-07 00:30:00",179080,7.775,48.78,0.545,0.098,23.49,110.2659,25.58,26.41,36.83,0,111,13.21,26.42,10.8
"2010-06-07 00:30:30",179081,7.849,48.34,0.491,0.05,23.49,110.2647,25.57,26.44,36.75,0,111,13.21,26.42,10.3
"2010-06-07 00:31:00",179082,7.909,48.31,0.451,0.071,23.48,110.2655,25.58,26.46,36.77,0,111,13.21,26.42,10.3
"2010-06-07 00:31:30",179083,7.741,48.51,0.607,0.105,23.52,110.27,25.59,26.5,36.6,0,111,13.2,26.43,10.5
"2010-06-07 00:32:00",179084,7.652,49.18,0.68,0.097,23.57,110.2874,25.63,26.51,36.2,0,111,13.2,26.47,11.2
"2010-06-07 00:32:30",179085,7.762,48.07,0.79,0.072,23.5,110.2876,25.63,26.51,36.34,0,111,13.2,26.47,10.1
"2010-06-07 00:33:00",179086,7.72,47.55,0.584,0.044,23.52,110.2887,25.64,26.56,36.27,0,111,13.2,26.48,9.5
"2010-06-07 00:33:30",179087,7.806,47.15,0.363,0.042,23.52,110.3047,25.68,26.57,36.15,0,111,13.2,26.52,9.2
"2010-06-07 00:34:00",179088,7.79,47.62,0.514,0.065,23.53,110.3196,25.72,26.57,36,0,111,13.2,26.56,9.6
"2010-06-07 00:34:30",179089,7.763,47.14,0.349,0.069,23.53,110.3207,25.72,26.58,35.96,0,111,13.2,26.56,9.1
"2010-06-07 00:35:00",179090,7.749,46.52,0.541,0.063,23.55,110.3204,25.72,26.61,35.86,0,111,13.2,26.56,8.5
"2010-06-07 00:35:30",179091,7.797,46.14,0.45,0.063,23.54,110.3213,25.72,26.62,35.81,0,111,13.2,26.56,8.1
"2010-06-07 00:36:00",179092,7.658,46.28,0.514,0.115,23.59,110.3277,25.74,26.63,35.63,0,111,13.21,26.58,8.3
"2010-06-07 00:36:30",179093,7.551,45.08,0.418,0.08,23.66,110.3488,25.79,26.66,35.42,0,111,13.21,26.63,7.1
"2010-06-07 00:37:00",179094,7.711,44.4,0.63,0.064,23.6,110.3541,25.8,26.67,35.43,0,111,13.21,26.65,6.4
"2010-06-07 00:37:30",179095,7.59,44.05,0.478,0.085,23.58,110.3541,25.8,26.68,35.34,0,111,13.21,26.65,6.0
"2010-06-07 00:38:00",179096,7.823,43.87,0.72,0.142,23.56,110.355,25.81,26.69,35.27,0,111,13.21,26.65,5.9
"2010-06-07 00:38:30",179097,7.649,43.14,0.744,0.099,23.55,110.3564,25.81,26.72,35.27,0,111,13.21,26.65,5.1
"2010-06-07 00:39:00",179098,7.471,42.13,0.613,0.077,23.61,110.3612,25.82,26.72,35.1,0,111,13.21,26.66,4.1
"2010-06-07 00:39:30",179099,7.552,43.31,0.327,0.079,23.59,110.3735,25.85,26.73,35.05,0,111,13.21,26.70,5.3
"2010-06-07 00:40:00",179100,7.643,43.06,0.518,0.098,23.55,110.3853,25.88,26.73,34.99,0,111,13.21,26.73,5.1
"2010-06-07 00:40:30",179101,7.585,43.23,0.567,0.076,23.56,110.387,25.89,26.75,34.91,0,111,13.21,26.73,5.2
"2010-06-07 00:41:00",179102,7.439,42.75,0.744,0.068,23.65,110.3873,25.89,26.77,34.87,0,111,13.21,26.73,4.8
"2010-06-07 00:41:30",179103,7.732,43.37,1.109,0.187,23.58,110.3878,25.89,26.76,34.72,0,111,13.21,26.73,5.4
"2010-06-07 00:42:00",179104,7.93,43.77,0.866,0.11,23.59,110.3878,25.89,26.77,34.56,0,111,13.21,26.73,5.8
"2010-06-07 00:42:30",179105,8.17,44.61,0.784,0.087,23.56,110.3878,25.89,26.77,34.39,0,111,13.21,26.73,6.6
"2010-06-07 00:43:00",179106,8.2,45.17,0.515,0.055,23.53,110.3878,25.89,26.76,34.18,0,111,13.21,26.73,7.2
"2010-06-07 00:43:30",179107,8.39,45.35,0.532,0.087,23.54,110.3873,25.89,26.77,33.93,0,111,13.21,26.73,7.3
"2010-06-07 00:44:00",179108,8.49,44.39,0.477,0.055,23.49,110.3845,25.88,26.76,33.84,0,111,13.21,26.72,6.4
"2010-06-07 00:44:30",179109,8.71,44.42,0.467,0.094,23.47,110.3656,25.83,26.75,34.11,0,111,13.21,26.68,6.4
"2010-06-07 00:45:00",179110,8.87,44.52,0.428,0.045,23.42,110.3553,25.81,26.73,34.07,0,111,13.21,26.65,6.5
"2010-06-07 00:45:30",179111,9.03,44,0.613,0.074,23.34,110.3541,25.8,26.73,33.75,0,111,13.21,26.65,6.0
"2010-06-07 00:46:00",179112,9.15,43.14,0.263,0.05,23.32,110.3437,25.78,26.7,33.53,0,111,13.21,26.62,5.1
"2010-06-07 00:46:30",179113,9.16,42.93,0.321,0.033,23.35,110.3221,25.72,26.68,33.53,0,111,13.21,26.56,4.9
"2010-06-07 00:47:00",179114,9.15,41.83,0.598,0.038,23.28,110.3207,25.72,26.66,33.58,0,111,13.21,26.56,3.8
"2010-06-07 00:47:30",179115,9.15,40.93,0.488,0.038,23.24,110.3042,25.68,26.62,33.55,0,111,13.21,26.52,2.9
"2010-06-07 00:48:00",179116,9.17,41.73,0.496,0.034,23.29,110.2885,25.64,26.6,33.66,0,111,13.21,26.48,3.7
"2010-06-07 00:48:30",179117,9.11,41.6,0.59,0.075,23.26,110.2872,25.63,26.59,33.54,0,111,13.21,26.47,3.6
"2010-06-07 00:49:00",179118,9.07,42.55,0.536,0.072,23.29,110.2701,25.59,26.57,33.45,0,111,13.21,26.43,4.5
"2010-06-07 00:49:30",179119,9.06,42.9,0.423,0.041,23.34,110.2615,25.57,26.55,33.67,0,111,13.21,26.41,4.9
"2010-06-07 00:50:00",179120,9.14,42,0.326,0.06,23.35,110.2585,25.56,26.52,33.77,0,111,13.21,26.40,4.0
"2010-06-07 00:50:30",179121,9.15,41.84,0.423,0.059,23.35,110.2622,25.57,26.5,34.01,0,111,13.21,26.41,3.8
"2010-06-07 00:51:00",179122,9.11,41.07,0.583,0.055,23.37,110.2629,25.57,26.49,34.11,0,111,13.21,26.41,3.1
"2010-06-07 00:51:30",179123,9.32,40.23,0.487,0.064,23.34,110.2623,25.57,26.49,34.01,0,111,13.21,26.41,2.2
"2010-06-07 00:52:00",179124,9.34,40.46,0.531,0.087,23.31,110.2628,25.57,26.48,33.84,0,111,13.21,26.41,2.5
"2010-06-07 00:52:30",179125,9.24,40.12,0.596,0.081,23.34,110.2559,25.55,26.47,33.93,0,111,13.22,26.39,2.1
"2010-06-07 00:53:00",179126,9.41,38.7,0.608,0.062,23.33,110.2535,25.55,26.47,33.63,0,111,13.22,26.39,0.7
"2010-06-07 00:53:30",179127,9.39,37.99,0.697,0.119,23.32,110.2487,25.53,26.47,33.48,0,111,13.22,26.37,360.0
"2010-06-07 00:54:00",179128,9.55,38.1,0.512,0.078,23.27,110.2471,25.53,26.46,33.28,0,111,13.22,26.37,0.1
"2010-06-07 00:54:30",179129,9.45,38.71,0.587,0.087,23.29,110.2488,25.53,26.46,33.39,0,111,13.22,26.37,0.7
"2010-06-07 00:55:00",179130,9.57,38.69,0.462,0.107,23.31,110.244,25.52,26.46,33.44,0,111,13.22,26.36,0.7
"2010-06-07 00:55:30",179131,9.6,38.09,0.807,0.083,23.28,110.2432,25.52,26.47,33.38,0,111,13.22,26.36,0.1
"2010-06-07 00:56:00",179132,9.58,38.18,0.478,0.111,23.34,110.2437,25.52,26.45,33.56,0,111,13.22,26.36,0.2
"2010-06-07 00:56:30",179133,9.67,38.67,0.702,0.075,23.35,110.2428,25.52,26.45,33.66,0,111,13.22,26.36,0.7
"2010-06-07 00:57:00",179134,9.73,37.44,1.153,0.153,23.35,110.2425,25.52,26.44,33.67,0,111,13.22,26.36,359.4
"2010-06-07 00:57:30",179135,9.62,36.39,1.491,0.254,23.32,110.244,25.52,26.44,33.62,0,111,13.22,26.36,358.4
"2010-06-07 00:58:00",179136,9.62,36.15,1.317,0.272,23.33,110.2437,25.52,26.44,33.66,0,111,13.22,26.36,358.1
"2010-06-07 00:58:30",179137,7.54,30.36,3.501,0.648,23.19,110.2459,25.53,26.46,34.44,0,111,13.22,26.37,352.4
"2010-06-07 00:59:00",179138,8.93,25.92,2.945,0.986,22.42,110.2311,25.49,26.43,35.53,0,111,13.22,26.33,347.9
"2010-06-07 00:59:30",179139,8.94,30.74,3.326,1.226,22.84,110.1864,25.37,26.36,35.36,0,111,13.23,26.21,352.7
"2010-06-07 01:00:00",179140,8.64,32.38,2.877,1.052,23.21,110.1789,25.35,26.3,35.16,0,111,13.23,26.19,354.4
"2010-06-07 01:00:30",179141,8.36,34.19,3.575,1.245,23.17,110.1619,25.31,26.28,35.25,0,111,13.23,26.15,356.2
"2010-06-07 01:01:00",179142,9.67,38.26,1.247,0.184,23.35,110.1531,25.29,26.26,34.73,0,111,13.23,26.13,0.3
"2010-06-07 01:01:30",179143,9.32,36.64,1.832,0.607,23.1,110.1516,25.28,26.26,35.11,0,111,13.23,26.12,358.6
"2010-06-07 01:02:00",179144,9.23,40.31,1.857,0.185,23.14,110.1624,25.31,26.26,34.56,0,111,13.23,26.15,2.3
"2010-06-07 01:02:30",179145,9.22,37.81,1.377,0.357,22.9,110.1707,25.33,26.26,35.05,0,111,13.23,26.17,359.8
"2010-06-07 01:03:00",179146,9.52,38.66,1.119,0.183,22.86,110.1788,25.35,26.25,35.03,0,111,13.23,26.19,0.7
"2010-06-07 01:03:30",179147,9.29,41.69,1.524,0.218,22.88,110.1796,25.36,26.25,34.96,0,111,13.23,26.20,3.7
"2010-06-07 01:04:00",179148,8.93,44.17,1.199,0.346,22.92,110.1802,25.36,26.26,34.65,0,111,13.22,26.20,6.2
"2010-06-07 01:04:30",179149,9.29,45.35,2.849,0.256,22.92,110.1921,25.39,26.27,34.63,0,111,13.22,26.23,7.3
"2010-06-07 01:05:00",179150,9.27,47.27,1.955,0.293,22.89,110.2118,25.44,26.3,34.64,0,111,13.22,26.28,9.3
"2010-06-07 01:05:30",179151,9.21,45.83,2.717,0.291,22.91,110.2098,25.43,26.33,34.67,0,111,13.22,26.27,7.8
"2010-06-07 01:06:00",179152,9.01,49.89,1.876,0.52,22.86,110.2261,25.48,26.34,34.35,0,111,13.21,26.32,11.9
"2010-06-07 01:06:30",179153,9.32,47.76,2.391,0.339,22.81,110.2313,25.49,26.36,34.48,0,111,13.21,26.33,9.8
"2010-06-07 01:07:00",179154,9.03,51.14,2.341,0.295,22.96,110.2329,25.49,26.37,34.03,0,111,13.21,26.33,13.1
"2010-06-07 01:07:30",179155,8.53,54.39,2.033,0.193,22.85,110.2596,25.56,26.41,33.94,0,111,13.21,26.40,16.4
"2010-06-07 01:08:00",179156,8.45,49.66,3.055,0.18,22.7,110.2653,25.58,26.43,34.4,0,111,13.21,26.42,11.7
"2010-06-07 01:08:30",179157,8.37,52.67,3.265,0.215,22.8,110.2619,25.57,26.44,34.06,0,111,13.21,26.41,14.7
"2010-06-07 01:09:00",179158,8.29,54.79,0.932,0.197,22.76,110.2684,25.58,26.46,33.78,0,111,13.21,26.43,16.8
"2010-06-07 01:09:30",179159,8.19,53.35,0.839,0.19,22.7,110.2755,25.6,26.48,33.96,0,111,13.21,26.44,15.3
"2010-06-07 01:10:00",179160,8.13,54.1,1.344,0.117,22.72,110.2798,25.61,26.48,33.89,0,111,13.22,26.45,16.1
"2010-06-07 01:10:30",179161,8.06,54.35,1.638,0.145,22.69,110.2792,25.61,26.49,33.94,0,111,13.22,26.45,16.3
"2010-06-07 01:11:00",179162,8.03,55.06,1.188,0.165,22.72,110.2815,25.62,26.51,33.69,0,111,13.22,26.46,17.1
"2010-06-07 01:11:30",179163,8.03,55.03,1.571,0.079,22.74,110.2822,25.62,26.51,33.56,0,111,13.22,26.46,17.0
"2010-06-07 01:12:00",179164,7.74,54.74,0.741,0.148,22.73,110.287,25.63,26.52,33.65,0,111,13.22,26.47,16.7
"2010-06-07 01:12:30",179165,7.701,54.92,1.087,0.192,22.81,110.2955,25.65,26.52,33.36,0,111,13.22,26.50,16.9
"2010-06-07 01:13:00",179166,7.722,58.19,1.151,0.149,22.88,110.3,25.67,26.55,33.01,0,111,13.22,26.51,20.2
"2010-06-07 01:13:30",179167,7.753,58.01,0.649,0.143,22.91,110.2983,25.66,26.55,32.91,0,111,13.22,26.50,20.0
"2010-06-07 01:14:00",179168,7.773,57.27,1.045,0.169,22.89,110.3126,25.7,26.57,32.9,0,111,13.22,26.54,19.3
"2010-06-07 01:14:30",179169,7.734,55.01,1.486,0.136,22.79,110.3235,25.73,26.58,33.02,0,111,13.22,26.57,17.0
"2010-06-07 01:15:00",179170,7.582,56.16,0.806,0.083,22.84,110.3229,25.72,26.6,32.84,0,111,13.22,26.57,18.2
"2010-06-07 01:15:30",179171,7.638,54.24,0.815,0.17,22.8,110.3229,25.72,26.63,32.93,0,111,13.22,26.57,16.2
"2010-06-07 01:16:00",179172,7.735,54.01,1.024,0.182,22.87,110.3228,25.72,26.63,32.69,0,111,13.22,26.57,16.0
"2010-06-07 01:16:30",179173,7.759,51.1,0.92,0.168,22.74,110.3311,25.75,26.64,33,0,111,13.22,26.59,13.1
"2010-06-07 01:17:00",179174,7.78,51.21,0.651,0.1,22.71,110.3356,25.76,26.65,33.04,0,111,13.22,26.60,13.2
"2010-06-07 01:17:30",179175,7.749,50.26,0.725,0.092,22.68,110.3283,25.74,26.68,33.18,0,111,13.22,26.58,12.3
"2010-06-07 01:18:00",179176,7.563,50.14,1.179,0.108,22.72,110.3262,25.73,26.66,33.07,0,111,13.22,26.57,12.1
"2010-06-07 01:18:30",179177,7.841,47.63,1.016,0.115,22.68,110.3207,25.72,26.65,33.09,0,111,13.22,26.56,9.6
"2010-06-07 01:19:00",179178,7.923,46.87,1.305,0.08,22.67,110.3204,25.72,26.66,33.28,0,111,13.22,26.56,8.9
"2010-06-07 01:19:30",179179,7.928,44.13,2.053,0.164,22.63,110.3207,25.72,26.63,33.54,0,111,13.21,26.56,6.1
"2010-06-07 01:20:00",179180,7.962,41.36,1.055,0.132,22.66,110.2957,25.65,26.62,33.93,0,111,13.22,26.50,3.4
"2010-06-07 01:20:30",179181,8.21,39.98,0.808,0.099,22.73,110.2861,25.63,26.59,34.08,0,111,13.22,26.47,2.0
"2010-06-07 01:21:00",179182,8.26,38.57,1.624,0.121,22.76,110.2676,25.58,26.55,34.24,0,111,13.21,26.42,0.6
"2010-06-07 01:21:30",179183,8.18,39.55,0.816,0.108,22.73,110.2547,25.55,26.53,34.27,0,111,13.21,26.39,1.5
"2010-06-07 01:22:00",179184,8.42,37.21,0.788,0.099,22.73,110.2529,25.54,26.51,34.43,0,111,13.21,26.39,359.2
"2010-06-07 01:22:30",179185,8.4,39.68,1.602,0.117,22.78,110.2529,25.54,26.49,34.12,0,111,13.21,26.39,1.7
"2010-06-07 01:23:00",179186,8.62,39.81,1.347,0.097,22.85,110.253,25.54,26.47,34.02,0,111,13.21,26.39,1.8
"2010-06-07 01:23:30",179187,8.66,38.26,0.723,0.12,22.78,110.2515,25.54,26.48,34.28,0,111,13.21,26.38,0.3
"2010-06-07 01:24:00",179188,8.62,39.84,0.818,0.078,22.83,110.2439,25.52,26.46,34.14,0,111,13.21,26.36,1.8
"2010-06-07 01:24:30",179189,8.7,40.4,0.532,0.097,22.87,110.2477,25.53,26.45,34.21,0,111,13.21,26.37,2.4
"2010-06-07 01:25:00",179190,8.83,41.71,0.92,0.087,22.92,110.2527,25.54,26.46,34.09,0,111,13.21,26.38,3.7
"2010-06-07 01:25:30",179191,8.77,40.8,0.847,0.123,22.91,110.2529,25.54,26.46,34.15,0,111,13.21,26.39,2.8
"2010-06-07 01:26:00",179192,9.06,41.79,0.558,0.054,22.99,110.2529,25.54,26.46,34.08,0,111,13.21,26.39,3.8
"2010-06-07 01:26:30",179193,9,42.39,0.881,0.102,23.02,110.2529,25.54,26.47,33.94,0,111,13.21,26.39,4.4
"2010-06-07 01:27:00",179194,9.18,41.56,1.116,0.106,22.96,110.2563,25.55,26.49,34.11,0,111,13.22,26.39,3.6
"2010-06-07 01:27:30",179195,8.99,43.19,0.707,0.146,23.05,110.2633,25.57,26.49,33.55,0,111,13.22,26.41,5.2
"2010-06-07 01:28:00",179196,8.91,43.44,0.847,0.268,23.12,110.2825,25.62,26.5,33.15,0,111,13.22,26.46,5.4
"2010-06-07 01:28:30",179197,8.92,42.81,0.923,0.164,23.05,110.2867,25.63,26.53,33.34,0,111,13.22,26.47,4.8
"2010-06-07 01:29:00",179198,8.96,42.97,0.778,0.191,23.08,110.2889,25.64,26.53,33.31,0,111,13.22,26.48,5.0
"2010-06-07 01:29:30",179199,9.39,42.06,0.754,0.145,23.02,110.2982,25.66,26.54,33.44,0,111,13.22,26.50,4.1
"2010-06-07 01:30:00",179200,9.65,42.26,0.801,0.12,23.06,110.3145,25.7,26.57,33.69,0,111,13.22,26.54,4.3
"2010-06-07 01:30:30",179201,9.84,42.81,0.605,0.116,23.13,110.3204,25.72,26.58,33.72,0,111,13.22,26.56,4.8
"2010-06-07 01:31:00",179202,10.02,45.36,1.451,0.131,23.17,110.3204,25.72,26.59,33.33,0,111,13.22,26.56,7.4
"2010-06-07 01:31:30",179203,10.39,45.39,1.398,0.211,23.15,110.3204,25.72,26.6,33.2,0,111,13.22,26.56,7.4
"2010-06-07 01:32:00",179204,11.48,45.67,3.116,0.578,22.81,110.3204,25.72,26.61,34.04,0,111,13.22,26.56,7.7
"2010-06-07 01:32:30",179205,11.35,53.76,3.787,0.739,21.7,110.3067,25.68,26.61,36.64,0,111,13.22,26.52,15.8
"2010-06-07 01:33:00",179206,10.48,60.77,3.728,0.538,21.51,110.2477,25.53,26.55,37.73,0,111,13.22,26.37,22.8
"2010-06-07 01:33:30",179207,9.87,53.23,5.592,0.686,21.88,110.1788,25.35,26.47,38.01,0,111,13.22,26.19,15.2
"2010-06-07 01:34:00",179208,10.72,46.13,0.99,0.303,23.51,110.1518,25.28,26.37,35.21,0,111,13.23,26.12,8.1
"2010-06-07 01:34:30",179209,10.36,47.13,2.179,0.474,23.27,110.1462,25.27,26.29,35.02,0,111,13.22,26.11,9.1
"2010-06-07 01:35:00",179210,9.07,40.24,5.934,0.479,21.6,110.1364,25.25,26.26,37.64,0,111,13.23,26.09,2.2
"2010-06-07 01:35:30",179211,10.29,39.8,3.2,0.658,21.18,110.1062,25.17,26.2,39.02,0,111,13.23,26.01,1.8
"2010-06-07 01:36:00",179212,10.81,45.98,2.34,0.477,21.4,110.059,25.05,26.13,40.41,0,111,13.23,25.89,8.0
"2010-06-07 01:36:30",179213,10.57,42.84,1.909,0.562,21.9,109.9981,24.89,26.03,38.92,0,111,13.23,25.73,4.8
"2010-06-07 01:37:00",179214,9.94,44.08,2.015,0.411,21.86,109.9442,24.75,25.91,38.74,0,111,13.24,25.59,6.1
"2010-06-07 01:37:30",179215,9.5,49.4,2.791,0.352,21.53,109.888,24.61,25.8,39.6,0,110.9,13.24,25.44,11.4
"2010-06-07 01:38:00",179216,10.12,46.71,3.223,0.673,22,109.8333,24.47,25.67,37.33,0,110.9,13.24,25.30,8.7
"2010-06-07 01:38:30",179217,10.83,40.16,1.898,0.201,22.61,109.7939,24.36,25.55,33.16,0,110.9,13.24,25.20,2.2
"2010-06-07 01:39:00",179218,10.77,40.24,0.959,0.427,22.66,109.7762,24.32,25.46,32.33,0,110.9,13.24,25.16,2.2
"2010-06-07 01:39:30",179219,10.38,36.98,1.854,0.677,22.31,109.7722,24.31,25.41,33.46,0,110.9,13.23,25.15,359.0
"2010-06-07 01:40:00",179220,9.2,35.19,1.22,0.512,22.12,109.7627,24.28,25.37,34.28,0,110.9,13.24,25.12,357.2
"2010-06-07 01:40:30",179221,9.97,36.49,0.979,0.485,21.9,109.748,24.25,25.33,34.81,0,110.9,13.24,25.08,358.5
"2010-06-07 01:41:00",179222,11.65,36.39,0.615,0.641,21.51,109.7484,24.25,25.3,34.07,0,110.9,13.24,25.08,358.4
"2010-06-07 01:41:30",179223,11.6,36.45,0.762,0.377,21.61,109.7249,24.19,25.26,33.68,0,110.9,13.25,25.02,358.5
"2010-06-07 01:42:00",179224,12.16,39.27,2.222,0.309,21.74,109.7196,24.17,25.24,32.56,0,110.9,13.25,25.01,1.3
"2010-06-07 01:42:30",179225,12.34,43.56,0.706,0.226,21.83,109.6957,24.11,25.19,31.58,0,110.9,13.25,24.95,5.6
"2010-06-07 01:43:00",179226,12.12,42.89,1.266,0.385,21.81,109.6825,24.08,25.15,31.75,0,110.9,13.25,24.91,4.9
"2010-06-07 01:43:30",179227,12,46.77,2.706,0.187,21.47,109.6563,24.01,25.1,33.27,0,110.9,13.25,24.85,8.8
"2010-06-07 01:44:00",179228,11.83,50,1.175,0.219,21.3,109.6296,23.94,25.07,35.17,0,110.9,13.26,24.78,12.0
"2010-06-07 01:44:30",179229,11.39,43.64,1.106,0.286,21.99,109.6023,23.87,25,31.86,0,110.9,13.26,24.71,5.6
"2010-06-07 01:45:00",179230,11.01,42.69,1.424,0.153,21.98,109.5849,23.83,24.94,31.26,0,110.9,13.26,24.66,4.7
"2010-06-07 01:45:30",179231,10.82,41.15,1.35,0.336,22.02,109.5849,23.83,24.89,31.01,0,110.9,13.26,24.66,3.2
"2010-06-07 01:46:00",179232,10.07,38.42,1.174,0.193,22.25,109.5849,23.83,24.85,29.65,0,110.9,13.26,24.66,0.4
"2010-06-07 01:46:30",179233,9.78,38.41,1.042,0.317,22.28,109.5849,23.83,24.86,29.54,0,110.9,13.26,24.66,0.4
"2010-06-07 01:47:00",179234,9.35,37.71,1.387,0.392,22.36,109.5992,23.86,24.86,29.24,0,110.9,13.26,24.70,359.7
"2010-06-07 01:47:30",179235,9.3,38.43,1.036,0.197,22.31,109.6206,23.92,24.87,29.22,0,110.9,13.26,24.76,0.4
"2010-06-07 01:48:00",179236,8.73,34.5,1.972,0.904,22.63,109.6476,23.99,24.9,28.47,0,110.9,13.25,24.82,356.5
"2010-06-07 01:48:30",179237,7.845,32.79,1.282,0.492,22.77,109.6802,24.07,24.93,27.94,0,110.9,13.25,24.91,354.8
"2010-06-07 01:49:00",179238,8.67,34.52,1.007,0.384,22.58,109.7113,24.15,24.98,27.91,0,110.9,13.25,24.99,356.5
"2010-06-07 01:49:30",179239,9.01,35.37,0.812,0.25,22.42,109.7407,24.23,25.04,28.3,0,110.9,13.25,25.06,357.4
"2010-06-07 01:50:00",179240,9.09,35.09,1.174,0.658,22.21,109.7547,24.26,25.09,28.65,0,110.9,13.25,25.10,357.1
"2010-06-07 01:50:30",179241,8.44,34.17,1.744,1.088,22.36,109.7802,24.33,25.14,28.74,0,110.9,13.25,25.17,356.2
"2010-06-07 01:51:00",179242,9.8,36.97,0.856,0.25,22.16,109.803,24.39,25.19,28.87,0,110.9,13.25,25.23,359.0